Regional Weather Roundup
Issued by NWS Boston, MA

Current Version | Previous Version | Text Only | Print | Product List | Glossary Off
Versions: 1 2 3 4 5 6 7 8 9 10 11 12 13 14 15 16 17 18 19 20 21 22 23 24 25 26 27
000 ASUS41 KBOX 281510 RWRBOX REGIONAL WEATHER ROUNDUP NATIONAL WEATHER SERVICE TAUNTON MA 1100 AM EDT FRI JUL 28 2017 NOTE: "FAIR" INDICATES FEW OR NO CLOUDS BELOW 12,000 FEET WITH NO SIGNIFICANT WEATHER AND/OR OBSTRUCTIONS TO VISIBILITY. MAZALL-281600- EASTERN MASSACHUSETTS CITY SKY/WX TMP DP RH WIND PRES REMARKS BOSTON MOSUNNY 79 62 56 W9 29.84S BEVERLY MOSUNNY 79 64 60 NW7 29.83F LAWRENCE SUNNY 79 64 60 NW8 29.86F BEDFORD MOSUNNY 78 62 57 NW7 29.84S BLUE HILL N/A 77 63 61 NW5 29.86S NORWOOD SUNNY 79 65 62 VRB5 29.84S MARSHFIELD SUNNY 81 64 57 NE7 29.83F PLYMOUTH SUNNY 80 63 55 W5 29.85S TAUNTON SUNNY 80 64 58 CALM 29.84F NEW BEDFORD SUNNY 80 63 55 NW3 29.84S $$ MAZALL-281600- CAPE COD AND THE ISLANDS CITY SKY/WX TMP DP RH WIND PRES REMARKS FALMOUTH MOSUNNY 79 66 65 VRB3 29.86S HYANNIS SUNNY 78 64 61 VRB3 29.84S CHATHAM MOSUNNY 80 70 71 VRB5 29.86S PROVINCETOWN SUNNY 74 65 73 NW7 29.85S NANTUCKET PTSUNNY 74 70 87 SW13 29.87R MARTHAS VNYRD MOSUNNY 79 69 71 SW10 29.86R $$ MAZALL-281600- CENTRAL AND WESTERN MASSACHUSETTS CITY SKY/WX TMP DP RH WIND PRES REMARKS WORCESTER CLOUDY 72 60 66 W6 29.89S FITCHBURG CLOUDY 80 64 58 W9 29.87S ORANGE CLOUDY 75 63 66 NW8 29.88S SPRINGFIELD PTSUNNY 75 63 64 N8 29.86S WESTFIELD MOSUNNY 75 65 70 SE3 29.87S NORTH ADAMS CLOUDY 72 61 68 N8 29.90S PITTSFIELD MOSUNNY 74 62 66 NW9 29.90S $$ RIZALL-281600- RHODE ISLAND CITY SKY/WX TMP DP RH WIND PRES REMARKS PROVIDENCE CLOUDY 78 67 68 VRB3 29.86S NEWPORT MOSUNNY 78 68 71 NW6 29.86R BLOCK ISLAND CLOUDY 77 68 73 W3 29.87S WESTERLY MOSUNNY 82 68 62 VRB6 29.86S $$ CTZALL-281600- CONNECTICUT CITY SKY/WX TMP DP RH WIND PRES REMARKS BRADLEY INTL CLOUDY 76 66 71 N5 29.87F HARTFORD CLOUDY N/A N/A N/A NE9 29.86S BRIDGEPORT MOSUNNY 78 68 71 SE7 29.86S DANBURY CLOUDY 77 66 68 NE3 29.88F GROTON CLOUDY 80 65 59 CALM 29.85S NEW HAVEN PTSUNNY 80 63 55 N9 29.86S CHESTER PTSUNNY 79 64 61 CALM 29.87S MERIDEN CLOUDY 80 65 59 VRB3 29.86S WILLIMANTIC CLOUDY 77 67 71 NW5 29.87S OXFORD PTSUNNY 79 63 57 VRB5 29.89S $$ MEZ002-015-021-024-NHZ003-005-008-011-012-014-VTZ005-008-281600- NORTHERN NEW ENGLAND CITY SKY/WX TMP DP RH WIND PRES REMARKS PORTLAND ME MOSUNNY 78 60 53 N9 29.83S BANGOR ME PTSUNNY 74 57 55 NW14G20 29.81S CONCORD NH MOSUNNY 77 60 55 W14 29.86S MANCHESTER NH PTSUNNY 77 58 51 NW12 29.84F NASHUA NH MOSUNNY 77 63 61 NW12 29.86S PORTSMOUTH NH PTSUNNY 79 62 55 NW9 29.82F JAFFREY NH CLOUDY 74 61 63 VRB7 29.90S KEENE NH CLOUDY 73 62 68 NW9 29.89S BURLINGTON VT MOSUNNY 70 52 52 N7 29.93S MT. WASHINGTON MOSUNNY 45 30 57 NW25G33 N/A $$ NYZ052-076-281600- EASTERN NEW YORK CITY SKY/WX TMP DP RH WIND PRES REMARKS ALBANY CLOUDY 72 59 63 NE9 29.91S NEW YORK CITY PTSUNNY 78 70 76 NE7 29.85S $$ ANZALL-281600- MARINE OBSERVATIONS STATION/POSITION TIME TEMP WIND PRES VSBY WAVE AIR SEA DIR/SP/G HT/PER (UTC) (F) (DEG/KT/KT) (MB) (MI) (FT/S) BOSTON BUOY 1450 67 65 220/ 4/ 6 1010.6R 2/ 7 BUZZARDS BAY 1400 67 240/ 5/ 5 1011.4F NANTUCKET SOUND 1450 69 1011.0R 1/ 5 MASS BAY-STELLWA 1404 66 62 230/ 6/ 6 1009.9S 2/ 6 ISLE OF SHOALS 1400 71 300/ 4/ 5 1010.1R S OF BLOCK IS NOT AVBL $$ ......................KEY......................... SKY/WX - SKY CONDITION/PRESENT WEATHER TMP - TEMPERATURE IN FAHRENHEIT DWPT - DEWPOINT IN FAHRENHEIT RH - RELATIVE HUMIDITY IN PERCENT WIND - DIRECTION AND SPEED IN MPH PRES - MEAN SEA LEVEL PRESSURE IN INCHES OF HG WCI - WIND CHILL INDEX VSB - VISIBILITY IN MILES HX - HEAT INDEX TC - TEMPERATURE IN CELSIUS VRB - VARIABLE WIND DIRECTION N/A - NOT AVAILABLE

USA.gov is the U.S. government's official web portal to all federal, state and local government web resources and services.